Location: Chanteloup
(48.8560°N, 2.7390°E)
Time: 18:21:32
(UTC+00:00)

USA 229 DEB - Pass Details

Date: 24 October 2021
Orbit: 944 x 1268 km, 63.4° (Epoch: 25 November)

Event Time Altitude Azimuth Distance (km) Brightness Sun altitude
Rises 17:25:12 0° 180° (S) 3,619 6.6 -7.7°
Reaches altitude 10° 17:28:03 10° 169° (S) 2,702 5.8 -8.2°
Maximum altitude 17:33:16 28° 113° (ESE) 1,784 4.4 -9.0°
Drops below altitude 10° 17:38:46 10° 57° (ENE) 2,864 5.4 -9.9°
Enters shadow 17:39:26 - 54° (NE) 3,072 5.6 -10.0°
